TINTIN A (43216 NORAD) Tracking and Keplerian Element Data

This shows tracking and keplerian element data for the satellite.

Feedback or suggestion? Click here.




ElementValue
Catalog43216
NameTINTIN A
Epoch Orbit5905
Epoch Day77.47127479
Epoch Year2019
RAAN86.4843
Inclination97.455
Eccentricity0.0012821
Argument of Perigee8.4122
Mean Anonmoly351.7326
Mean Motion15.19893985
Decay Rate1.284E-05
L11 43216U 18020B 19077.47127479 .00001284 00000-0 62896-4 0 9992
L22 43216 97.4550 86.4843 0012821 8.4122 351.7326 15.19893985 59056

Live tracking and technical data element details for TINTIN A (NORAD 43216). TINTIN A can be tracked NOW for your location showing map with azimuth and elevation plus other details from your city location.

Track the satellite on the map from your city or location and see movement details for azimuth, elevation, latitude, longitude, range, height, and movement on the map or in text.







IsCatalogInMostPopularTable: catalog: 43216, numindb: 259
Update: records affected: 1



GetName: 43216 TINTIN A

Hit Count: updated at: Wed, 20 Mar 2019 04:57:28 GMT